| time (UTC) | temp C | wind direction | speed KPH | gust KPH | rain 1hr cm | rain 24hr cm | rain mn cm | humidity % | barometer mb |
| 20260507230820 | 13 | 101 | 3.2 | 12.9 | 0.00 | 0.00 | 0.00 | 42 | 1010.3 |
| 20260507225842 | 14 | 112 | 3.2 | 9.7 | 0.00 | 0.00 | 0.00 | 42 | 1010.3 |
| 20260507224854 | 14 | 118 | 4.8 | 14.5 | 0.00 | 0.00 | 0.00 | 43 | 1010.3 |
| 20260507223913 | 14 | 94 | 6.4 | 16.1 | 0.00 | 0.00 | 0.00 | 41 | 1010.2 |
| 20260507222935 | 14 | 101 | 8.0 | 17.7 | 0.00 | 0.00 | 0.00 | 40 | 1010.2 |
| 20260507221920 | 15 | 93 | 6.4 | 19.3 | 0.00 | 0.00 | 0.00 | 42 | 1009.9 |
| 20260507220858 | 15 | 98 | 6.4 | 19.3 | 0.00 | 0.00 | 0.00 | 41 | 1009.9 |
| 20260507215832 | 15 | 108 | 4.8 | 14.5 | 0.00 | 0.00 | 0.00 | 40 | 1009.8 |
| 20260507214821 | 15 | 105 | 6.4 | 14.5 | 0.00 | 0.00 | 0.00 | 40 | 1009.7 |
| 20260507213759 | 15 | 112 | 3.2 | 12.9 | 0.00 | 0.00 | 0.00 | 42 | 1009.7 |
| 20260507212749 | 14 | 91 | 6.4 | 27.4 | 0.00 | 0.00 | 0.00 | 40 | 1009.6 |
| 20260507211745 | 15 | 112 | 9.7 | 27.4 | 0.00 | 0.00 | 0.00 | 40 | 1009.8 |
| 20260507205616 | 15 | 112 | 3.2 | 11.3 | 0.00 | 0.00 | 0.00 | 40 | 1009.6 |
| 20260507204613 | 15 | 101 | 3.2 | 11.3 | 0.00 | 0.00 | 0.00 | 45 | 1009.5 |
| 20260507203634 | 15 | 122 | 3.2 | 11.3 | 0.00 | 0.00 | 0.00 | 41 | 1009.5 |
| 20260507202643 | 15 | 122 | 4.8 | 20.9 | 0.00 | 0.00 | 0.00 | 43 | 1009.5 |
| 20260507201702 | 15 | 105 | 8.0 | 20.9 | 0.00 | 0.00 | 0.00 | 41 | 1009.7 |
| 20260507200707 | 15 | 105 | 8.0 | 17.7 | 0.00 | 0.00 | 0.00 | 42 | 1009.6 |
| 20260507195646 | 15 | 100 | 6.4 | 16.1 | 0.00 | 0.00 | 0.00 | 44 | 1009.8 |
| 20260507193542 | 15 | 107 | 8.0 | 19.3 | 0.00 | 0.00 | 0.00 | 44 | 1010.1 |
| 20260507192607 | 15 | 97 | 6.4 | 17.7 | 0.00 | 0.00 | 0.00 | 42 | 1010.1 |
| 20260507191557 | 14 | 120 | 4.8 | 14.5 | 0.00 | 0.00 | 0.00 | 46 | 1010.1 |
| 20260507185346 | 14 | 60 | 6.4 | 19.3 | 0.00 | 0.00 | 0.00 | 47 | 1010.2 |
| 20260507184340 | 15 | 111 | 4.8 | 16.1 | 0.00 | 0.00 | 0.00 | 49 | 1010.3 |
| 20260507183320 | 15 | 103 | 3.2 | 12.9 | 0.00 | 0.00 | 0.00 | 46 | 1010.2 |
| 20260507182257 | 15 | 109 | 1.6 | 9.7 | 0.00 | 0.00 | 0.00 | 51 | 1010.4 |
| 20260507181242 | 14 | 115 | 4.8 | 9.7 | 0.00 | 0.00 | 0.00 | 49 | 1010.4 |
| 20260507180219 | 13 | 92 | 1.6 | 9.7 | 0.00 | 0.00 | 0.00 | 50 | 1010.5 |
| 20260507175240 | 13 | 108 | 4.8 | 12.9 | 0.00 | 0.00 | 0.00 | 49 | 1010.5 |
| 20260507174238 | 13 | 105 | 4.8 | 17.7 | 0.00 | 0.00 | 0.00 | 47 | 1010.6 |
| 20260507173253 | 14 | 130 | 8.0 | 19.3 | 0.00 | 0.00 | 0.00 | 46 | 1010.8 |
| 20260507172253 | 14 | 94 | 3.2 | 19.3 | 0.00 | 0.00 | 0.00 | 50 | 1010.9 |
| 20260507171259 | 13 | 105 | 4.8 | 19.3 | 0.00 | 0.00 | 0.00 | 47 | 1011.1 |
| 20260507170317 | 13 | 121 | 3.2 | 11.3 | 0.00 | 0.00 | 0.00 | 48 | 1011.2 |
| 20260507165253 | 13 | 111 | 3.2 | 16.1 | 0.00 | 0.00 | 0.00 | 48 | 1011.2 |
| 20260507161910 | 13 | 111 | 6.4 | 14.5 | 0.00 | 0.00 | 0.00 | 45 | 1011.5 |
| 20260507155758 | 13 | 110 | 3.2 | 9.7 | 0.00 | 0.00 | 0.00 | 47 | 1011.6 |
| 20260507154735 | 13 | 102 | 3.2 | 12.9 | 0.00 | 0.00 | 0.00 | 47 | 1011.8 |
| 20260507153715 | 13 | 41 | 4.8 | 12.9 | 0.00 | 0.00 | 0.00 | 51 | 1011.8 |
| 20260507152737 | 12 | 101 | 1.6 | 12.9 | 0.00 | 0.00 | 0.00 | 49 | 1011.9 |
| 20260507151736 | 12 | 112 | 3.2 | 9.7 | 0.00 | 0.00 | 0.00 | 51 | 1012.0 |
| 20260507150757 | 12 | 106 | 0.0 | 8.0 | 0.00 | 0.00 | 0.00 | 51 | 1012.1 |
| 20260507145803 | 13 | 308 | 3.2 | 11.3 | 0.00 | 0.03 | 0.00 | 52 | 1012.2 |
| 20260507144802 | 13 | 110 | 1.6 | 8.0 | 0.00 | 0.03 | 0.00 | 51 | 1012.3 |
| 20260507143750 | 12 | 130 | 0.0 | 0.0 | 0.00 | 0.03 | 0.00 | 55 | 1012.4 |
| 20260507142808 | 12 | 107 | 4.8 | 12.9 | 0.00 | 0.03 | 0.00 | 52 | 1012.5 |
| 20260507141823 | 12 | 50 | 1.6 | 8.0 | 0.00 | 0.03 | 0.00 | 54 | 1012.7 |
| 20260507140827 | 12 | 45 | 1.6 | 8.0 | 0.00 | 0.03 | 0.00 | 53 | 1012.9 |
| 20260507135756 | 12 | 58 | 0.0 | 8.0 | 0.00 | 0.08 | 0.00 | 54 | 1013.0 |
| 20260507134809 | 11 | 119 | 1.6 | 6.4 | 0.00 | 0.10 | 0.00 | 56 | 1013.2 |
| 20260507132659 | 11 | 107 | 0.0 | 6.4 | 0.00 | 0.10 | 0.00 | 57 | 1013.3 |
| 20260507131655 | 11 | 107 | 0.0 | 4.8 | 0.00 | 0.10 | 0.00 | 57 | 1013.4 |
| 20260507130716 | 11 | 68 | 0.0 | 0.0 | 0.00 | 0.10 | 0.00 | 58 | 1013.2 |
| 20260507125727 | 11 | 40 | 0.0 | 3.2 | 0.00 | 0.10 | 0.00 | 59 | 1013.2 |
| 20260507123633 | 11 | 120 | 0.0 | 0.0 | 0.00 | 0.10 | 0.00 | 56 | 1013.2 |
| 20260507122628 | 10 | 121 | 0.0 | 0.0 | 0.00 | 0.10 | 0.00 | 50 | 1013.4 |
| 20260507120521 | 8 | 121 | 0.0 | 0.0 | 0.00 | 0.10 | 0.00 | 10 | 1013.3 |
| 20260507115526 | 7 | 121 | 0.0 | 0.0 | 0.00 | 0.15 | 0.00 | 1 | 1013.2 |
| 20260507114452 | 5 | 121 | 0.0 | 0.0 | 0.00 | 0.15 | 0.00 | 1 | 1013.2 |
| 20260507113510 | 4 | 121 | 0.0 | 0.0 | 0.00 | 0.15 | 0.00 | 1 | 1013.1 |
| 20260507112459 | 4 | 121 | 0.0 | 0.0 | 0.00 | 0.15 | 0.00 | 1 | 1013.1 |
| 20260507111501 | 3 | 121 | 0.0 | 0.0 | 0.00 | 0.15 | 0.00 | 1 | 1012.9 |
| 20260507110516 | 3 | 121 | 0.0 | 0.0 | 0.00 | 0.15 | 0.00 | 1 | 1012.7 |
| 20260507105454 | 3 | 121 | 0.0 | 0.0 | 0.00 | 0.15 | 0.00 | 1 | 1012.6 |
| 20260507104448 | 3 | 121 | 0.0 | 0.0 | 0.00 | 0.18 | 0.00 | 1 | 1012.6 |
| 20260507103510 | 3 | 121 | 0.0 | 0.0 | 0.00 | 0.20 | 0.00 | 1 | 1012.6 |
| 20260507102511 | 3 | 121 | 0.0 | 0.0 | 0.00 | 0.20 | 0.00 | 1 | 1012.5 |
| 20260507101500 | 4 | 121 | 0.0 | 0.0 | 0.00 | 0.23 | 0.00 | 1 | 1012.5 |
| 20260507100520 | 4 | 121 | 0.0 | 0.0 | 0.00 | 0.30 | 0.00 | 1 | 1012.4 |
| 20260507095523 | 3 | 121 | 0.0 | 0.0 | 0.00 | 0.33 | 0.00 | 1 | 1012.3 |
| 20260507094522 | 3 | 121 | 0.0 | 0.0 | 0.00 | 0.36 | 0.00 | 1 | 1012.4 |
| 20260507093531 | 3 | 121 | 0.0 | 0.0 | 0.00 | 0.36 | 0.00 | 1 | 1012.3 |
| 20260507091414 | 4 | 121 | 0.0 | 0.0 | 0.00 | 0.38 | 0.00 | 1 | 1012.4 |
| 20260507090405 | 5 | 121 | 0.0 | 0.0 | 0.00 | 0.41 | 0.00 | 5 | 1012.6 |
| 20260507085340 | 5 | 121 | 0.0 | 0.0 | 0.00 | 0.43 | 0.00 | 13 | 1012.6 |
| 20260507084400 | 5 | 121 | 0.0 | 0.0 | 0.00 | 0.46 | 0.00 | 21 | 1012.6 |
| 20260507083409 | 5 | 121 | 0.0 | 0.0 | 0.00 | 0.48 | 0.00 | 30 | 1012.6 |
| 20260507082357 | 6 | 121 | 0.0 | 0.0 | 0.00 | 0.51 | 0.00 | 33 | 1012.6 |
| 20260507080221 | 5 | 121 | 0.0 | 0.0 | 0.00 | 0.56 | 0.00 | 23 | 1012.4 |
| 20260507074125 | 5 | 121 | 0.0 | 0.0 | 0.00 | 0.58 | 0.00 | 28 | 1012.5 |
| 20260507073121 | 6 | 121 | 0.0 | 0.0 | 0.00 | 0.58 | 0.00 | 30 | 1012.5 |
| 20260507072056 | 6 | 121 | 0.0 | 0.0 | 0.00 | 0.61 | 0.00 | 31 | 1012.5 |
| 20260507071055 | 6 | 121 | 0.0 | 0.0 | 0.00 | 0.61 | 0.00 | 32 | 1012.5 |
| 20260507064948 | 7 | 121 | 0.0 | 0.0 | 0.00 | 0.66 | 0.00 | 31 | 1012.4 |
| 20260507063949 | 7 | 121 | 0.0 | 0.0 | 0.00 | 0.69 | 0.00 | 27 | 1012.5 |
| 20260507062942 | 8 | 121 | 0.0 | 0.0 | 0.00 | 0.71 | 0.00 | 29 | 1012.5 |
| 20260507061956 | 8 | 121 | 0.0 | 0.0 | 0.00 | 0.71 | 0.00 | 39 | 1012.6 |
| 20260507060941 | 8 | 121 | 0.0 | 0.0 | 0.00 | 0.71 | 0.00 | 36 | 1012.7 |
| 20260507055953 | 8 | 121 | 0.0 | 0.0 | 0.00 | 0.71 | 0.00 | 28 | 1012.8 |
| 20260507054944 | 8 | 121 | 0.0 | 0.0 | 0.00 | 0.71 | 0.00 | 26 | 1012.9 |
| 20260507052759 | 8 | 121 | 0.0 | 0.0 | 0.00 | 0.74 | 0.00 | 34 | 1013.1 |
| 20260507051803 | 8 | 121 | 0.0 | 0.0 | 0.00 | 0.74 | 0.00 | 34 | 1013.2 |
| 20260507050756 | 8 | 121 | 0.0 | 0.0 | 0.00 | 0.74 | 0.00 | 31 | 1013.1 |
| 20260507045753 | 8 | 121 | 0.0 | 0.0 | 0.00 | 0.74 | 0.00 | 30 | 1013.2 |
| 20260507044726 | 8 | 121 | 0.0 | 0.0 | 0.00 | 0.74 | 0.00 | 28 | 1013.1 |
| 20260507043714 | 8 | 121 | 0.0 | 0.0 | 0.00 | 0.74 | 0.00 | 27 | 1013.1 |
| 20260507041531 | 8 | 121 | 0.0 | 0.0 | 0.00 | 0.74 | 0.00 | 47 | 1013.0 |
| 20260507040515 | 9 | 121 | 0.0 | 0.0 | 0.00 | 0.74 | 0.00 | 44 | 1013.1 |
| 20260507032056 | 9 | 121 | 0.0 | 0.0 | 0.00 | 0.74 | 0.71 | 51 | 1013.0 |
| 20260507031120 | 9 | 121 | 0.0 | 0.0 | 0.00 | 0.74 | 0.71 | 49 | 1012.9 |
| 20260507030101 | 9 | 121 | 0.0 | 0.0 | 0.00 | 0.74 | 0.71 | 47 | 1012.6 |
| 20260507023941 | 10 | 121 | 0.0 | 0.0 | 0.00 | 0.74 | 0.71 | 46 | 1012.4 |
| 20260507022952 | 10 | 121 | 0.0 | 0.0 | 0.00 | 0.74 | 0.71 | 47 | 1012.3 |
| 20260507021949 | 10 | 121 | 0.0 | 0.0 | 0.00 | 0.74 | 0.71 | 45 | 1012.5 |
| 20260507020933 | 10 | 121 | 0.0 | 0.0 | 0.00 | 0.74 | 0.71 | 42 | 1012.4 |
| 20260507015922 | 10 | 121 | 0.0 | 0.0 | 0.00 | 0.74 | 0.71 | 40 | 1012.3 |
| 20260507014945 | 10 | 121 | 0.0 | 0.0 | 0.00 | 0.74 | 0.71 | 32 | 1012.0 |
| 20260507013949 | 10 | 117 | 0.0 | 0.0 | 0.00 | 0.74 | 0.71 | 15 | 1012.0 |
| 20260507012915 | 10 | 117 | 0.0 | 1.6 | 0.00 | 0.74 | 0.71 | 9 | 1011.7 |
| 20260507011902 | 11 | 113 | 0.0 | 0.0 | 0.00 | 0.74 | 0.71 | 1 | 1011.8 |
| 20260507010835 | 11 | 113 | 0.0 | 0.0 | 0.00 | 0.74 | 0.71 | 18 | 1011.6 |
| 20260507005855 | 11 | 113 | 0.0 | 0.0 | 0.00 | 0.74 | 0.71 | 24 | 1011.5 |
| 20260507004845 | 11 | 113 | 0.0 | 0.0 | 0.00 | 0.74 | 0.71 | 27 | 1011.7 |
| 20260507002706 | 11 | 113 | 0.0 | 0.0 | 0.00 | 0.74 | 0.71 | 29 | 1011.8 |
| 20260507001643 | 11 | 113 | 0.0 | 0.0 | 0.00 | 0.74 | 0.71 | 21 | 1012.1 |
| 20260507000636 | 11 | 113 | 0.0 | 0.0 | 0.00 | 0.74 | 0.71 | 18 | 1012.3 |
| 20260506235602 | 11 | 113 | 0.0 | 0.0 | 0.00 | 0.74 | 0.71 | 20 | 1012.2 |
| 20260506234527 | 11 | 113 | 0.0 | 0.0 | 0.00 | 0.74 | 0.71 | 22 | 1011.8 |
| 20260506233535 | 11 | 113 | 0.0 | 0.0 | 0.00 | 0.74 | 0.71 | 27 | 1011.7 |